TimeCET,TemperatureF,Dew PointF,Humidity,Sea Level PressureIn,VisibilityMPH,Wind Direction,Wind SpeedMPH,Gust SpeedMPH,PrecipitationIn,Events,Conditions,WindDirDegrees,DateUTC
12:20 AM,46.4,37.4,71,29.83,6.2,SSW,24.2,-,N/A,,Partly Cloudy,200,2012-10-28 23:20:00
12:50 AM,46.4,37.4,71,29.83,6.2,SSW,24.2,-,N/A,,Unknown,200,2012-10-28 23:50:00
1:20 AM,46.4,37.4,71,29.83,6.2,SSW,25.3,-,N/A,,Unknown,200,2012-10-29 00:20:00
1:50 AM,46.4,37.4,71,29.80,6.2,SSW,26.5,-,N/A,,Light Drizzle,200,2012-10-29 00:50:00
2:20 AM,44.6,39.2,81,29.80,5.0,SSW,26.5,-,N/A,,Light Drizzle,200,2012-10-29 01:20:00
2:50 AM,44.6,39.2,81,29.77,4.3,SSW,26.5,-,N/A,Rain,Light Rain,200,2012-10-29 01:50:00
3:20 AM,44.6,41.0,87,29.77,3.7,SSW,24.2,-,N/A,,Light Drizzle,200,2012-10-29 02:20:00
3:50 AM,44.6,41.0,87,29.77,-9999.0,SSW,25.3,-,N/A,,Drizzle,200,2012-10-29 02:50:00
4:20 AM,44.6,41.0,87,29.74,3.1,SSW,26.5,-,N/A,,Drizzle,200,2012-10-29 03:20:00
4:50 AM,44.6,41.0,87,29.74,-9999.0,SSW,25.3,-,N/A,,Drizzle,200,2012-10-29 03:50:00
5:20 AM,44.6,41.0,87,29.74,3.1,SSW,24.2,-,N/A,,Drizzle,200,2012-10-29 04:20:00
5:50 AM,44.6,41.0,87,29.71,3.7,SSW,27.6,-,N/A,,Drizzle,200,2012-10-29 04:50:00
6:20 AM,44.6,41.0,87,29.71,3.7,SSW,24.2,-,N/A,,Drizzle,200,2012-10-29 05:20:00
6:50 AM,44.6,41.0,87,29.71,3.7,SSW,25.3,-,N/A,,Drizzle,200,2012-10-29 05:50:00
7:20 AM,44.6,42.8,93,29.71,4.3,SSW,24.2,-,N/A,,Light Drizzle,200,2012-10-29 06:20:00
7:50 AM,44.6,42.8,93,29.68,3.7,SSW,25.3,36.8,N/A,,Drizzle,200,2012-10-29 06:50:00
8:20 AM,44.6,42.8,93,29.68,3.1,SSW,25.3,-,N/A,,Drizzle,210,2012-10-29 07:20:00
8:50 AM,44.6,42.8,93,29.68,-9999.0,SSW,24.2,36.8,N/A,Rain,Light Rain,210,2012-10-29 07:50:00
9:20 AM,46.4,44.6,93,29.68,3.7,SSW,23.0,-,N/A,,Light Drizzle,200,2012-10-29 08:20:00
9:50 AM,46.4,44.6,93,29.65,3.1,SSW,25.3,-,N/A,,Drizzle,210,2012-10-29 08:50:00
10:20 AM,46.4,44.6,93,29.65,4.3,SSW,25.3,-,N/A,,Light Drizzle,210,2012-10-29 09:20:00
10:50 AM,46.4,44.6,93,29.65,5.0,SSW,24.2,-,N/A,,Light Drizzle,210,2012-10-29 09:50:00
11:20 AM,46.4,44.6,93,29.65,3.1,SSW,23.0,35.7,N/A,,Light Drizzle,210,2012-10-29 10:20:00
11:50 AM,46.4,44.6,93,29.65,3.1,SSW,25.3,-,N/A,Rain,Light Rain,210,2012-10-29 10:50:00
12:20 PM,46.4,44.6,93,29.62,2.8,SSW,25.3,-,N/A,Rain,Light Rain,210,2012-10-29 11:20:00
12:50 PM,46.4,44.6,93,29.62,-9999.0,SSW,24.2,-,N/A,Rain,Light Rain,210,2012-10-29 11:50:00
1:20 PM,46.4,44.6,93,29.62,3.1,SSW,25.3,-,N/A,Rain,Light Rain,210,2012-10-29 12:20:00
1:50 PM,48.2,46.4,93,29.59,5.6,SSW,25.3,-,N/A,,Light Drizzle,210,2012-10-29 12:50:00
2:20 PM,48.2,46.4,93,29.59,-9999.0,SSW,23.0,-,N/A,Rain,Light Rain,210,2012-10-29 13:20:00
2:50 PM,46.4,44.6,93,29.59,3.7,SSW,23.0,-,N/A,Rain,Light Rain,210,2012-10-29 13:50:00
3:20 PM,48.2,46.4,93,29.56,3.7,SSW,24.2,-,N/A,Rain,Light Rain,210,2012-10-29 14:20:00
4:20 PM,48.2,46.4,93,29.56,4.3,SSW,16.1,-,N/A,,Mostly Cloudy,210,2012-10-29 15:20:00
4:50 PM,46.4,44.6,93,29.56,4.3,SSW,17.3,-,N/A,,Mostly Cloudy,210,2012-10-29 15:50:00
5:20 PM,48.2,46.4,93,29.56,5.6,SSW,16.1,-,N/A,,Mostly Cloudy,210,2012-10-29 16:20:00
5:50 PM,48.2,44.6,87,29.53,6.2,SSW,11.5,-,N/A,,Scattered Clouds,200,2012-10-29 16:50:00
6:20 PM,48.2,46.4,93,29.53,6.2,SSW,12.7,-,N/A,,Mostly Cloudy,210,2012-10-29 17:20:00
6:50 PM,48.2,44.6,87,29.53,6.2,SSW,10.4,-,N/A,,Partly Cloudy,210,2012-10-29 17:50:00
7:20 PM,46.4,44.6,93,29.53,5.0,SW,10.4,-,N/A,,Mostly Cloudy,230,2012-10-29 18:20:00
7:50 PM,48.2,46.4,93,29.53,6.2,WSW,8.1,-,N/A,,Mostly Cloudy,250,2012-10-29 18:50:00
8:20 PM,46.4,44.6,93,29.53,6.2,NW,6.9,-,N/A,,Partly Cloudy,320,2012-10-29 19:20:00
8:50 PM,46.4,44.6,93,29.53,5.0,NW,6.9,-,N/A,Rain,Rain,310,2012-10-29 19:50:00
9:20 PM,46.4,42.8,87,29.53,6.2,NW,15.0,-,N/A,,Scattered Clouds,310,2012-10-29 20:20:00
9:50 PM,46.4,42.8,87,29.53,6.2,NNW,13.8,-,N/A,,Mostly Cloudy,330,2012-10-29 20:50:00
10:20 PM,46.4,39.2,76,29.53,6.2,NNW,16.1,-,N/A,,Mostly Cloudy,330,2012-10-29 21:20:00
10:50 PM,44.6,37.4,76,29.53,6.2,NNW,12.7,-,N/A,,Scattered Clouds,330,2012-10-29 21:50:00
11:20 PM,46.4,41.0,81,29.53,6.2,NNW,12.7,-,N/A,,Scattered Clouds,330,2012-10-29 22:20:00
11:50 PM,44.6,39.2,81,29.53,6.2,NW,12.7,-,N/A,,Partly Cloudy,320,2012-10-29 22:50:00